#timestamp,LO_Frequency,Hit,StdDev 
1524906015.4,286046991.7,N
1524906035.3,286046991.8,N
1524906055.1,286046990.3,N
1524906075.8,286046990.5,N
1524906095.7,286046990.9,N
1524906115.5,286046989.1,N
1524906135.4,286046989.8,N
1524906155.2,286046989.9,N
1524906175.0,286046988.2,Y
1524906175.9,286046988.2,P
1524906195.8,286046994.0,N
1524906215.6,286046994.2,N
1524906235.4,286046992.3,Y
1524906255.3,286046998.2,P
1524906275.1,286046998.8,N
1524906295.9,286046999.3,N
1524906315.7,286046997.8,N
1524906335.5,286046995.0,N
1524906355.4,286046995.6,N
1524906375.2,286046993.3,N
1524906395.0,286046993.5,N
1524906395.9,286046993.5,N
1524906415.8,286046994.3,N
1524906435.6,286046992.7,Y
1524906455.5,286046993.7,P
1524906475.3,286046993.6,P
1524906495.1,286046994.5,P
1524906515.9,286046992.0,Y
1524906535.7,286046996.5,P
1524906555.6,286046997.7,N
1524906575.4,286046994.9,P
1524906595.2,286046996.0,Y
1524906615.1,286046999.5,P
1524906616.0,286046999.5,N
1524906635.8,286046996.6,N
1524906655.7,286046996.8,N
1524906675.5,286046995.4,Y
1524906695.3,286046997.0,P
1524906715.2,286046997.4,P
1524906735.0,286046997.5,P
1524906735.9,286046997.5,Y
1524906755.8,286046999.5,P
1524906775.6,286046997.2,N
1524906795.4,286046997.7,N
1524906815.3,286046996.3,Y
1524906835.1,286046997.9,P
1524906855.8,286046997.5,P
1524906875.7,286046995.1,P
1524906895.5,286046996.0,Y
1524906915.4,286046996.7,P
1524906935.2,286046994.9,P
1524906955.0,286046996.2,P
1524906955.9,286046996.2,Y
1524906975.8,286046996.5,P
1524906995.6,286046997.1,P
1524907015.5,286046997.6,P
1524907035.3,286046994.9,Y
1524907055.1,286046999.1,P
1524907075.9,286046996.8,N
1524907095.7,286046998.0,N
1524907115.5,286046998.0,N
1524907135.4,286046995.1,Y
1524907155.2,286046997.6,P
1524907175.1,286046995.4,P
1524907176.0,286046995.4,P
1524907195.8,286046993.8,Y
1524907215.6,286046996.9,P
1524907235.5,286046997.2,P
1524907255.3,286046996.6,P
1524907275.2,286046997.2,Y
1524907295.9,286046998.6,P
1524907315.7,286046999.2,N
1524907335.6,286046996.7,P
1524907355.4,286046995.4,Y
1524907375.2,286046996.9,P
1524907395.1,286046995.0,P
1524907396.0,286046995.0,P
1524907415.8,286046995.5,Y
1524907435.7,286046998.8,P
1524907455.5,286046998.8,N
1524907475.3,286046997.1,N
1524907495.2,286046997.6,N
1524907515.0,286046995.3,Y
1524907515.9,286046995.3,P
1524907535.8,286046996.8,N
1524907555.6,286046997.2,N
1524907575.4,286046997.9,N
1524907595.3,286046995.0,Y
1524907615.1,286046997.0,P
1524907635.8,286046997.3,P
1524907655.7,286046997.9,P
1524907675.5,286046994.9,Y
1524907695.4,286046998.8,P
1524907715.2,286046996.9,P
1524907735.0,286046997.9,N
1524907735.9,286046997.9,N
1524907755.8,286046995.8,Y
1524907775.6,286046995.0,P
1524907795.4,286046994.9,P
1524907815.3,286046995.6,P
1524907835.1,286046994.2,Y
1524907855.9,286046999.6,P
1524907875.7,286046996.9,N
1524907895.5,286046996.6,N
1524907915.4,286046997.6,N
1524907935.2,286046995.9,Y
1524907955.0,286046997.1,P
1524907956.0,286046997.1,P
1524907975.8,286046995.5,P
1524907995.6,286046995.8,Y
1524908015.5,286046999.4,P
1524908035.3,286046997.2,N
1524908055.1,286046997.7,N
1524908075.9,286046996.8,Y
1524908095.7,286046999.3,P
1524908115.6,286046996.6,P
1524908135.4,286046997.5,N
1524908155.2,286046995.1,Y
1524908175.1,286046997.4,P
1524908176.0,286046997.4,P
1524908195.8,286046997.8,P
1524908215.7,286046995.6,Y
1524908235.5,286046999.6,P
1524908255.3,286046997.6,N
1524908275.2,286046995.3,P
1524908295.0,286046996.4,N
1524908295.9,286046996.4,N
1524908315.7,286046993.9,Y
1524908335.6,286046995.2,P
1524908355.4,286046993.3,P
1524908375.3,286046993.7,P
1524908395.1,286046993.4,Y
1524908415.8,286046998.6,P
1524908435.7,286046999.3,N
1524908455.5,286046996.5,N
1524908475.4,286046996.8,N
1524908495.2,286046995.0,Y
1524908515.0,286046997.4,P
1524908515.9,286046997.4,P
1524908535.8,286046997.8,P
1524908555.6,286046997.8,Y
1524908575.4,286046999.0,P
1524908595.3,286046999.0,N
1524908615.1,286046997.7,P
1524908635.9,286046997.3,Y
1524908655.7,286046999.1,P
1524908675.5,286046997.1,P
1524908695.4,286046997.7,N
1524908715.2,286046996.4,Y
1524908735.1,286046995.1,P
1524908736.0,286046995.1,P
1524908755.8,286046995.2,P
1524908775.6,286046995.8,Y
1524908795.5,286046998.4,P
1524908815.3,286046996.5,N
1524908835.1,286046994.9,P
1524908855.9,286046995.6,Y
1524908875.7,286046999.0,P
1524908895.6,286046998.5,N
1524908915.4,286046996.9,N
1524908935.2,286046997.1,N
1524908955.1,286046997.8,N
1524908956.0,286046997.8,N
1524908975.8,286046993.8,Y
1524908995.7,286046995.6,P
1524909015.5,286046996.3,P
1524909035.3,286046994.2,P
1524909055.2,286046994.3,Y
1524909075.0,286046995.3,P
1524909075.9,286046995.3,P
1524909095.7,286046995.0,P
1524909115.6,286046995.5,Y
1524909135.4,286047001.2,P
1524909155.3,286046999.3,N
1524909175.1,286046997.3,N
1524909176.0,286046997.3,N
1524909195.8,286046997.4,N
1524909215.7,286046997.7,N
1524909235.5,286046995.7,N
1524909255.3,286046996.4,N
1524909275.2,286046994.2,Y
1524909295.0,286046995.1,P
1524909295.9,286046995.1,P
1524909315.8,286046993.6,P
1524909335.6,286046993.8,Y
1524909355.5,286046999.6,P
1524909375.3,286046996.7,N
1524909395.1,286046997.4,N
1524909415.9,286046995.3,Y
1524909435.7,286046998.9,P
1524909455.5,286046997.3,P
1524909475.4,286046995.4,P
1524909495.2,286046996.3,Y
1524909515.1,286046998.0,P
1524909516.0,286046998.0,P
1524909535.8,286046995.7,P
1524909555.6,286046995.8,Y
1524909575.5,286046999.2,P
1524909595.3,286046999.6,N
